User: anonymous   Login
Location: Campillo
(40.8621°N, 4.2488°W)
Time: 13:28:42
(UTC+00:00)
Language:

USA 308 - Orbit

View from above orbital plane
View from above orbital plane
View from above satellite
View from above satellite

Ground track
Ground track

The orbit data is extracted from the following two-line orbital elements,

1 45876U 20046D   21194.90371053 0.00001800  00000-0  14818-3 0    04
2 45876  53.9774 150.8638 0007378 136.7772 223.2227 14.98627342    02
Epoch (UTC): 13 July 2021 21:41:20
Eccentricity: 0.0007378
inclination: 53.9774°
perigee height: 566 km
apogee height: 576 km
right ascension of ascending node: 150.8638°
argument of perigee: 136.7772°
revolutions per day: 14.98627342
mean anomaly at epoch: 223.2227°
orbit number at epoch: 0

The dashed part of the orbit path shows where the satellite is in the earth's shadow,  

DLR